TimePST,TemperatureF,Dew PointF,Humidity,Sea Level PressureIn,VisibilityMPH,Wind Direction,Wind SpeedMPH,Gust SpeedMPH,PrecipitationIn,Events,Conditions,WindDirDegrees,DateUTC
12:01 AM,21.2,15.8,80,29.85,4.0,SSW,3.5,-,0.00,Snow,Light Snow,210,2012-12-15 08:01:00
12:13 AM,19.4,15.8,86,29.85,6.0,Calm,Calm,-,0.00,,Overcast,0,2012-12-15 08:13:00
12:53 AM,18.0,12.9,81,29.92,10.0,SSW,3.5,-,0.00,,Overcast,200,2012-12-15 08:53:00
1:11 AM,19.4,14.0,80,29.87,9.0,South,3.5,-,N/A,,Overcast,190,2012-12-15 09:11:00
1:31 AM,17.6,12.2,79,29.88,9.0,SSW,3.5,-,N/A,,Overcast,210,2012-12-15 09:31:00
1:53 AM,17.1,10.9,77,29.96,10.0,South,6.9,-,N/A,,Mostly Cloudy,180,2012-12-15 09:53:00
2:53 AM,10.0,6.1,84,30.00,10.0,South,4.6,-,N/A,,Clear,170,2012-12-15 10:53:00
3:53 AM,9.0,3.9,80,29.99,10.0,SSW,4.6,-,N/A,,Clear,200,2012-12-15 11:53:00
4:53 AM,9.0,1.9,73,29.99,10.0,SSW,3.5,-,N/A,,Clear,200,2012-12-15 12:53:00
5:53 AM,5.0,-0.0,80,30.02,10.0,SSW,3.5,-,N/A,,Clear,200,2012-12-15 13:53:00
6:53 AM,1.9,-2.9,80,30.05,10.0,Calm,Calm,-,N/A,,Clear,0,2012-12-15 14:53:00
7:53 AM,1.0,-4.0,79,30.06,10.0,Calm,Calm,-,N/A,,Clear,0,2012-12-15 15:53:00
8:53 AM,10.0,5.0,80,30.02,10.0,South,4.6,-,N/A,,Clear,170,2012-12-15 16:53:00
9:53 AM,24.1,12.9,62,29.97,10.0,South,6.9,-,N/A,,Clear,180,2012-12-15 17:53:00
10:53 AM,28.9,15.1,56,29.95,10.0,South,10.4,-,N/A,,Mostly Cloudy,190,2012-12-15 18:53:00
11:53 AM,28.9,16.0,58,29.95,10.0,South,15.0,-,N/A,,Overcast,190,2012-12-15 19:53:00
12:53 PM,30.0,16.0,56,29.94,10.0,South,10.4,-,N/A,,Overcast,180,2012-12-15 20:53:00
2:53 PM,28.0,17.1,63,29.98,10.0,SSW,10.4,-,N/A,,Overcast,200,2012-12-15 22:53:00
3:53 PM,27.0,19.0,72,30.00,4.0,South,16.1,21.9,N/A,,Haze,180,2012-12-15 23:53:00
4:06 PM,26.6,17.6,69,29.88,6.0,South,16.1,-,N/A,,Haze,170,2012-12-16 00:06:00
4:53 PM,27.0,18.0,69,30.00,9.0,SSW,11.5,-,N/A,,Overcast,200,2012-12-16 00:53:00
5:53 PM,27.0,18.0,69,30.03,10.0,South,12.7,-,N/A,,Overcast,190,2012-12-16 01:53:00
6:53 PM,28.0,18.0,66,30.04,10.0,SSW,12.7,-,N/A,,Overcast,200,2012-12-16 02:53:00
7:53 PM,28.9,19.0,67,30.03,10.0,South,12.7,-,N/A,,Mostly Cloudy,190,2012-12-16 03:53:00
8:53 PM,28.0,21.0,75,30.00,10.0,SSW,9.2,-,N/A,,Mostly Cloudy,200,2012-12-16 04:53:00
9:53 PM,28.9,21.9,75,29.94,10.0,SSW,9.2,-,N/A,,Mostly Cloudy,200,2012-12-16 05:53:00
10:53 PM,30.0,23.0,75,29.93,10.0,South,9.2,-,N/A,,Overcast,190,2012-12-16 06:53:00
11:53 PM,30.0,23.0,75,29.94,10.0,South,9.2,-,N/A,,Overcast,180,2012-12-16 07:53:00